Weather History for Grove, OK

Change the Weather History Date:

Tuesday, January 1, 2013

  Actual Average (KSLG) Record (KSLG)
Temperature  
Mean Temperature 30 °F -  
Max Temperature 37 °F 44 °F 73 °F (2006)
Min Temperature 23 °F 28 °F 8 °F (2001)
Degree Days  
Heating Degree Days 35    
Moisture  
Dew Point 32 °F    
Average Humidity 100    
Maximum Humidity 100    
Minimum Humidity 93    
Precipitation  
Precipitation 0.00 in - - ()
Sea Level Pressure  
Sea Level Pressure 30.20 in    
Wind  
Wind Speed 4 mph (North)    
Max Wind Speed 9 mph    
Max Gust Speed -    
Visibility 6 miles    
Events Snow    
Averages and records for this station are not official NWS values.
T = Trace of Precipitation, MM = Missing Value Source: NWS Daily Summary

Daily Weather History Graph

Daily Weather History Graph

Search for Another Location

Airport:

Trip Planner

Search our weather history database for the weather conditions in past years. The results will help you decide how hot, cold, wet, or windy it might be!

Date:

Astronomy

Jan. 01, 2013 Rise Set
Actual Time 7:31 AM CST 5:14 PM CST
Civil Twilight 7:02 AM CST 5:43 PM CST
Nautical Twilight 6:30 AM CST 6:15 PM CST
Astronomical Twilight 5:58 AM CST 6:46 PM CST
Moon 9:38 PM CST (1/1) 9:50 AM CST (1/1)
Length of Visible Light 10h 40m
Length of Day
9h 43m
Waning Gibbous, 83% of the Moon is Illuminated
Jan 1
Waning Gibbous
Jan 4
Last Quarter
Jan 11
New
Jan 18
First Quarter
Jan 26
Full

Hourly Weather History & Observations

Time (CST) Temp. Windchill Dew Point Humidity Pressure Visibility Wind Dir Wind Speed Gust Speed Precip Events Conditions
12:15 AM 37.4 °F - 37.4 °F 100% 30.08 in 3.0 mi Calm Calm - N/A   Overcast
12:35 AM 37.4 °F - 37.4 °F 100% 30.08 in 2.0 mi Calm Calm - N/A   Overcast
12:55 AM 37.4 °F 34.9 °F 37.4 °F 100% 30.07 in 2.5 mi NNW 3.5 mph - N/A   Overcast
1:15 AM 37.4 °F 32.1 °F 37.4 °F 100% 30.07 in 1.8 mi NNW 6.9 mph - N/A   Overcast
1:35 AM 37.4 °F 32.8 °F 37.4 °F 100% 30.06 in 1.0 mi North 5.8 mph - N/A   Overcast
1:55 AM 37.4 °F 33.8 °F 37.4 °F 100% 30.07 in 1.8 mi North 4.6 mph - N/A   Overcast
2:15 AM 37.4 °F 34.9 °F 37.4 °F 100% 30.07 in 3.0 mi NNE 3.5 mph - N/A   Overcast
2:35 AM 37.4 °F 34.9 °F 37.4 °F 100% 30.08 in 3.0 mi North 3.5 mph - N/A   Overcast
2:55 AM 35.6 °F 31.7 °F 35.6 °F 100% 30.07 in 3.0 mi North 4.6 mph - N/A   Overcast
3:15 AM 35.6 °F 30.7 °F 35.6 °F 100% 30.09 in 5.0 mi NNE 5.8 mph - N/A   Overcast
3:35 AM 35.6 °F 29.9 °F 35.6 °F 100% 30.07 in 5.0 mi NNE 6.9 mph - N/A   Overcast
3:55 AM 35.6 °F 32.8 °F 35.6 °F 100% 30.09 in 4.0 mi NE 3.5 mph - N/A   Overcast
4:15 AM 35.6 °F - 35.6 °F 100% 30.09 in 7.0 mi Calm Calm - N/A   Overcast
4:35 AM 35.6 °F 32.8 °F 35.6 °F 100% 30.10 in 7.0 mi North 3.5 mph - N/A   Overcast
4:55 AM 35.6 °F 31.7 °F 35.6 °F 100% 30.10 in 10.0 mi North 4.6 mph - N/A   Overcast
5:15 AM 35.6 °F 29.9 °F 35.6 °F 100% 30.12 in 10.0 mi North 6.9 mph - N/A   Overcast
5:35 AM 35.6 °F - 35.6 °F 100% 30.14 in 7.0 mi Calm Calm - N/A   Overcast
5:55 AM 33.8 °F 27.7 °F 33.8 °F 100% 30.11 in 2.0 mi North 6.9 mph - N/A   Overcast
6:15 AM 33.8 °F 30.8 °F 33.8 °F 100% 30.15 in 1.5 mi North 3.5 mph - N/A   Overcast
6:35 AM 32.0 °F 24.8 °F 32.0 °F 100% 30.16 in 1.5 mi North 8.1 mph - N/A   Overcast
6:55 AM 32.0 °F 26.4 °F 32.0 °F 100% 30.16 in 1.8 mi North 5.8 mph - N/A   Overcast
7:15 AM 32.0 °F 27.5 °F 32.0 °F 100% 30.16 in 1.8 mi North 4.6 mph - N/A   Overcast
7:35 AM 32.0 °F 24.8 °F 32.0 °F 100% 30.17 in 2.0 mi North 8.1 mph - N/A   Overcast
7:55 AM 32.0 °F 26.4 °F 32.0 °F 100% 30.15 in 2.0 mi NNE 5.8 mph - N/A   Overcast
8:15 AM 32.0 °F 25.6 °F 32.0 °F 100% 30.16 in 1.5 mi North 6.9 mph - N/A   Overcast
8:35 AM 32.0 °F 25.6 °F 32.0 °F 100% 30.17 in 1.5 mi North 6.9 mph - N/A Snow Light Snow
9:15 AM 32.0 °F 26.4 °F 32.0 °F 100% 30.20 in 1.5 mi North 5.8 mph - N/A Snow Light Snow
9:35 AM 32.0 °F 28.7 °F 32.0 °F 100% 30.21 in 1.5 mi North 3.5 mph - N/A Snow Light Snow
9:55 AM 32.0 °F 27.5 °F 32.0 °F 100% 30.23 in 2.0 mi North 4.6 mph - N/A Snow Light Snow
10:15 AM 32.0 °F 26.4 °F 32.0 °F 100% 30.23 in 3.0 mi North 5.8 mph - N/A Snow Light Snow
10:35 AM 32.0 °F 24.8 °F 32.0 °F 100% 30.24 in 3.0 mi NNW 8.1 mph - N/A   Overcast
10:55 AM 32.0 °F 25.6 °F 32.0 °F 100% 30.24 in 4.0 mi North 6.9 mph - N/A   Overcast
11:15 AM 32.0 °F 24.8 °F 32.0 °F 100% 30.23 in 4.0 mi North 8.1 mph - N/A   Overcast
11:35 AM 32.0 °F 26.4 °F 32.0 °F 100% 30.23 in 5.0 mi North 5.8 mph - N/A   Overcast
11:55 AM 32.0 °F 26.4 °F 32.0 °F 100% 30.23 in 5.0 mi North 5.8 mph - N/A   Overcast
12:15 PM 32.0 °F 24.8 °F 32.0 °F 100% 30.22 in 7.0 mi North 8.1 mph - N/A   Overcast
12:35 PM 32.0 °F 25.6 °F 32.0 °F 100% 30.23 in 4.0 mi North 6.9 mph - N/A   Overcast
12:55 PM 32.0 °F 27.5 °F 32.0 °F 100% 30.23 in 3.0 mi North 4.6 mph - N/A Snow Light Snow
1:15 PM 32.0 °F 26.4 °F 32.0 °F 100% 30.22 in 2.0 mi North 5.8 mph - N/A Snow Light Snow
1:35 PM 32.0 °F 26.4 °F 32.0 °F 100% 30.22 in 2.0 mi North 5.8 mph - N/A Snow Light Snow
1:55 PM 32.0 °F 24.8 °F 32.0 °F 100% 30.23 in 3.0 mi NW 8.1 mph - N/A Snow Light Snow
2:15 PM 32.0 °F 24.8 °F 32.0 °F 100% 30.23 in 7.0 mi North 8.1 mph - N/A   Overcast
2:35 PM 32.0 °F 25.6 °F 32.0 °F 100% 30.23 in 7.0 mi NNW 6.9 mph - N/A   Overcast
2:55 PM 32.0 °F 25.6 °F 32.0 °F 100% 30.23 in 7.0 mi NW 6.9 mph - N/A   Overcast
3:15 PM 32.0 °F 24.2 °F 32.0 °F 100% 30.23 in 7.0 mi NNW 9.2 mph - N/A   Overcast
3:35 PM 32.0 °F 24.2 °F 32.0 °F 100% 30.24 in 7.0 mi NNW 9.2 mph - N/A   Overcast
3:55 PM 32.0 °F 25.6 °F 32.0 °F 100% 30.25 in 7.0 mi North 6.9 mph - N/A   Overcast
4:15 PM 32.0 °F 27.5 °F 32.0 °F 100% 30.25 in 7.0 mi North 4.6 mph - N/A   Overcast
4:35 PM 30.2 °F 26.7 °F 30.2 °F 100% 30.24 in 7.0 mi North 3.5 mph - N/A   Overcast
4:55 PM 30.2 °F 25.4 °F 30.2 °F 100% 30.25 in 7.0 mi North 4.6 mph - N/A   Overcast
5:15 PM 30.2 °F - 30.2 °F 100% 30.25 in 7.0 mi Calm Calm - N/A   Overcast
5:35 PM 30.2 °F - 30.2 °F 100% 30.25 in 7.0 mi Calm Calm - N/A   Overcast
5:55 PM 30.2 °F - 30.2 °F 100% 30.25 in 10.0 mi Calm Calm - N/A   Overcast
6:15 PM 30.2 °F 26.7 °F 30.2 °F 100% 30.25 in 10.0 mi North 3.5 mph - N/A   Overcast
6:35 PM 30.2 °F 26.7 °F 30.2 °F 100% 30.27 in 10.0 mi North 3.5 mph - N/A   Overcast
6:55 PM 30.2 °F 25.4 °F 30.2 °F 100% 30.28 in 7.0 mi NW 4.6 mph - N/A   Overcast
7:15 PM 30.2 °F - 30.2 °F 100% 30.29 in 7.0 mi Calm Calm - N/A   Overcast
7:35 PM 30.2 °F 25.4 °F 30.2 °F 100% 30.28 in 7.0 mi NNW 4.6 mph - N/A   Overcast
7:55 PM 30.2 °F - 30.2 °F 100% 30.30 in 10.0 mi Calm Calm - N/A   Overcast
8:15 PM 28.4 °F 24.6 °F 28.4 °F 100% 30.28 in 10.0 mi NNE 3.5 mph - N/A   Overcast
8:35 PM 28.4 °F - 28.4 °F 100% 30.27 in 10.0 mi Calm Calm - N/A   Overcast
8:55 PM 28.4 °F - 28.4 °F 100% 30.28 in 10.0 mi Calm Calm - N/A   Mostly Cloudy
9:15 PM 26.6 °F 22.6 °F 26.6 °F 100% 30.28 in 10.0 mi North 3.5 mph - N/A   Scattered Clouds
9:35 PM 26.6 °F - 26.6 °F 100% 30.28 in 10.0 mi Calm Calm - N/A   Scattered Clouds
9:55 PM 26.6 °F - 26.6 °F 100% 30.28 in 10.0 mi Calm Calm - N/A   Clear
10:15 PM 26.6 °F - 26.6 °F 100% 30.29 in 10.0 mi Calm Calm - N/A   Clear
10:35 PM 26.6 °F - 24.8 °F 93% 30.29 in 10.0 mi Calm Calm - N/A   Clear
10:55 PM 24.8 °F - 24.8 °F 100% 30.27 in 10.0 mi Calm Calm - N/A   Clear
11:15 PM 24.8 °F - 24.8 °F 100% 30.27 in 10.0 mi Calm Calm - N/A   Clear
11:35 PM 23.0 °F - 23.0 °F 100% 30.28 in 10.0 mi Calm Calm - N/A   Clear
11:55 PM 23.0 °F - 23.0 °F 100% 30.28 in 10.0 mi Calm Calm - N/A   Clear